Weather History for EIKN - October, 2012

Change the Weather History Date:

Monday, October 29, 2012

  Actual Average Record
Temperature  
Mean Temperature 44 °F -  
Max Temperature 48 °F - - ()
Min Temperature 39 °F - - ()
Degree Days  
Heating Degree Days 22    
Moisture  
Dew Point 42 °F    
Average Humidity 91    
Maximum Humidity 100    
Minimum Humidity 76    
Precipitation  
Precipitation 0.00 in - - ()
Sea Level Pressure  
Sea Level Pressure 29.84 in    
Wind  
Wind Speed 6 mph ()    
Max Wind Speed 14 mph    
Max Gust Speed 23 mph    
Visibility 6.7 miles    
Events Rain    
T = Trace of Precipitation, MM = Missing Value Source: Averaged Metar Reports

Daily Weather History Graph

Daily Weather History Graph

Search for Another Location

Airport or City:

Trip Planner

Search our weather history database for the weather conditions in past years. The results will help you decide how hot, cold, wet, or windy it might be!

Date:

Astronomy

Oct. 29, 2012 Rise Set
Actual Time 7:30 AM GMT 5:06 PM GMT
Civil Twilight 6:53 AM GMT 5:43 PM GMT
Nautical Twilight 6:11 AM GMT 6:25 PM GMT
Astronomical Twilight 5:30 AM GMT 7:05 PM GMT
Moon 4:45 PM GMT (10/29) 7:10 AM GMT (10/29)
Length of Visible Light 10h 50m
Length of Day
9h 36m
Full, 100% of the Moon is Illuminated
Oct 29
Full
Oct 29
Full
Nov 7
Last Quarter
Nov 13
New
Nov 20
First Quarter

Hourly Weather History & Observations

Time (GMT) Temp. Windchill Dew Point Humidity Pressure Visibility Wind Dir Wind Speed Gust Speed Precip Events Conditions
12:00 AM 41 °F - 41 °F 99% 29.71 in - WNW 6.7 mph - -  
6:00 AM 41 °F - 41 °F 100% 29.78 in 19 mi NNW 4.5 mph - -   Partly Cloudy
6:00 AM 41.0 °F 38.0 °F 41.0 °F 100% 29.74 in 6.2 mi NNW 4.6 mph - N/A   Scattered Clouds
6:30 AM 41.0 °F 38.0 °F 41.0 °F 100% 29.77 in 6.2 mi North 4.6 mph - N/A   Scattered Clouds
7:00 AM 42.8 °F 41.1 °F 41.0 °F 93% 29.77 in 6.2 mi North 3.5 mph - N/A   Scattered Clouds
7:30 AM 42.8 °F 40.1 °F 42.8 °F 100% 29.77 in 6.2 mi NNW 4.6 mph - N/A   Partly Cloudy
8:00 AM 42.8 °F 41.1 °F 41.0 °F 93% 29.80 in 6.2 mi North 3.5 mph - N/A   Partly Cloudy
8:30 AM 42.8 °F 40.1 °F 42.8 °F 100% 29.80 in 6.2 mi North 4.6 mph - N/A   Partly Cloudy
9:00 AM 42.8 °F 38.6 °F 42.8 °F 100% 29.80 in 6.2 mi North 6.9 mph - N/A   Partly Cloudy
9:30 AM 44.6 °F 41.4 °F 42.8 °F 93% 29.83 in 6.2 mi North 5.8 mph - N/A   Scattered Clouds
10:00 AM 44.6 °F 41.4 °F 42.8 °F 93% 29.83 in 6.2 mi NNW 5.8 mph - N/A   Mostly Cloudy
10:30 AM 46.4 °F 42.9 °F 44.6 °F 93% 29.86 in 6.2 mi North 6.9 mph - N/A   Mostly Cloudy
11:00 AM 48.2 °F - 44.6 °F 87% 29.86 in 6.2 mi North 8.1 mph - N/A   Mostly Cloudy
11:30 AM 46.4 °F 40.7 °F 44.6 °F 93% 29.86 in 3.7 mi North 12.7 mph - N/A Rain Light Rain Showers
12:00 PM 47 °F - 46 °F 92% 29.89 in 10 mi North 8.9 mph - - Rain Light Rain Showers
12:00 PM 46.4 °F 41.9 °F 46.4 °F 100% 29.86 in 6.2 mi North 9.2 mph - N/A Rain Light Rain Showers
12:30 PM 48.2 °F - 44.6 °F 87% 29.86 in 6.2 mi North 9.2 mph - N/A   Mostly Cloudy
1:00 PM 48.2 °F - 44.6 °F 87% 29.86 in 6.2 mi North 13.8 mph - N/A   Mostly Cloudy
1:30 PM 48.2 °F - 44.6 °F 87% 29.86 in 6.2 mi North 11.5 mph - N/A   Mostly Cloudy
2:00 PM 46.4 °F 41.1 °F 42.8 °F 87% 29.86 in 6.2 mi North 11.5 mph - N/A   Mostly Cloudy
2:30 PM 48.2 °F - 41.0 °F 76% 29.86 in 6.2 mi North 10.4 mph 23.0 mph N/A   Mostly Cloudy
3:00 PM 46.4 °F 41.1 °F 41.0 °F 81% 29.89 in 6.2 mi North 11.5 mph 23.0 mph N/A   Mostly Cloudy
3:30 PM 46.4 °F 41.1 °F 41.0 °F 81% 29.86 in 6.2 mi North 11.5 mph - N/A   Mostly Cloudy
4:00 PM 46.4 °F 41.1 °F 41.0 °F 81% 29.89 in 6.2 mi NNW 11.5 mph - N/A   Mostly Cloudy
4:30 PM 44.6 °F 40.2 °F 39.2 °F 81% 29.89 in 6.2 mi North 8.1 mph - N/A   Mostly Cloudy
5:00 PM 44.6 °F 41.4 °F 41.0 °F 87% 29.89 in 6.2 mi North 5.8 mph - N/A   Mostly Cloudy
5:30 PM 44.6 °F 40.7 °F 41.0 °F 87% 29.89 in 6.2 mi North 6.9 mph - N/A   Mostly Cloudy
6:00 PM 44.6 °F 39.7 °F 39.2 °F 81% 29.89 in 6.2 mi NNW 9.2 mph - N/A   Mostly Cloudy